Погода в Вормсе

Германия     49°37′43″N   8°21′19″E
темп.,
°C
ветер,
м/с
пор.,
м/с
влажн.,
%
обл.,
%
осадки,
мм/ч
давл.,
гПа
погр.,
м
18 мая, вт
вт1823:00+10зюз5119288 1.1 1011351
02:00+9юз41094100 1.3 1012342
05:00+9зюз499492 0.1 1013511
08:00+9зюз5985100 0.1 1014940
11:00+10зюз6978100 0.0 10151102
14:00+11зюз797299 0.1 10151144
17:00+11з6976100 0.1 1015852
20:00+10з598324 0.5 1016577
19 мая, ср
ср1923:00+7зюз369158 0.0 1017110
02:00+7зюз369185 0.2 1017120
05:00+6зюз229454 0.1 101837
08:00+8зюз368783 0.1 1019264
11:00+13з466348 0.1 10191332
14:00+13зюз6767100 0.9 10181172
17:00+13з5570100 0.6 1017965
20:00+11зюз378283 1.0 1018281
20 мая, чт
чт2023:00+8зюз3690100 0.0 1019114
02:00+8з2689100 0.1 1020148
05:00+6з349386 0.0 102190
08:00+9зсз3484100 0.0 1023222
11:00+13ссз346938 0.2 10241029
14:00+16сз354611 0.3 10242012
17:00+17з34434 0.0 10231855
20:00+14юз346327 0.0 102371
21 мая, пт
пт2123:00+10зюз358632 0.1 102481
02:00+8ююз239121 0.1 102337
05:00+8ю2392100 0.0 102149
08:00+10ю3585100 0.0 1020236
11:00+13ююв576981 0.0 1018569
14:00+19ю584689 0.0 10141879
17:00+20юз5951100 0.0 10111979
20:00+16ююз3771100 0.0 1009181
22 мая, сб
сб2223:00+14юз61493100 4.6 1009672
02:00+12юз61487100 8.9 1009644
05:00+11юз61385100 0.0 1010648
08:00+10юз61283100 0.1 10121088
11:00+13зюз812575 0.0 10131728
14:00+16юз913475 0.0 10132458
17:00+15зюз9136099 0.0 10131861
20:00+13зюз6136798 0.1 10131257